• In Uzbekistan
  • List of Countries
  • For 7 days
  • Water Temperature
  • Satellite Maps
  • Weather Map
  • Weather Widgets
  • user-avatar
    Login

    Hourly Weather Arkadia

    Today, 17 July, Tuesday

    Time Temperature Precipitation Wind Pressure Humidity
    00:00 +21°C° 0 mm 1 mps 665 mmHg 57%
    01:00 +21°C° 0 mm 1 mps 665 mmHg 57%
    02:00 +20°C° 0 mm 1 mps 665 mmHg 57%
    03:00 +20°C° 0 mm 1 mps 664 mmHg 57%
    04:00 +20°C° 0 mm 1 mps 664 mmHg 57%
    05:00 +21°C° 0 mm 1 mps 665 mmHg 53%
    06:00 +23°C° 0 mm 1 mps 665 mmHg 48%
    07:00 +25°C° 0 mm 1 mps 665 mmHg 44%
    08:00 +27°C° 0 mm 2 mps 666 mmHg 39%
    09:00 +28°C° 0 mm 2 mps 666 mmHg 34%
    10:00 +30°C° 0 mm 3 mps 666 mmHg 29%
    11:00 +30°C° 0 mm 3 mps 666 mmHg 28%
    12:00 +32°C° 0 mm 4 mps 666 mmHg 27%
    13:00 +32°C° 0 mm 5 mps 666 mmHg 26%
    14:00 +30°C° 0 mm 5 mps 665 mmHg 29%
    15:00 +29°C° 0 mm 5 mps 664 mmHg 32%
    16:00 +28°C° 0 mm 5 mps 664 mmHg 34%
    17:00 +26°C° 0 mm 4 mps 663 mmHg 44%
    18:00 +24°C° 0 mm 3 mps 662 mmHg 53%
    19:00 +21°C° 0 mm 2 mps 662 mmHg 63%
    20:00 +20°C° 0 mm 2 mps 662 mmHg 70%
    21:00 +19°C° 0 mm 2 mps 662 mmHg 76%
    22:00 +18°C° 0 mm 2 mps 662 mmHg 83%
    23:00 +18°C° 0 mm 2 mps 661 mmHg 84%

    Tomorrow, 18 July, Wednesday

    Time Temperature Precipitation Wind Pressure Humidity
    00:00 +18°C° 0 mm 2 mps 661 mmHg 84%
    01:00 +17°C° 0 mm 2 mps 661 mmHg 85%
    02:00 +17°C° 0 mm 2 mps 661 mmHg 84%
    03:00 +17°C° 0 mm 2 mps 661 mmHg 83%
    04:00 +17°C° 0 mm 2 mps 661 mmHg 82%
    05:00 +18°C° 0 mm 2 mps 661 mmHg 75%
    06:00 +20°C° 0 mm 2 mps 662 mmHg 69%
    07:00 +21°C° 0 mm 2 mps 662 mmHg 62%
    08:00 +24°C° 0 mm 2 mps 663 mmHg 56%
    09:00 +26°C° 0 mm 2 mps 664 mmHg 49%
    10:00 +27°C° 0 mm 2 mps 664 mmHg 43%
    11:00 +28°C° 0 mm 3 mps 664 mmHg 41%
    12:00 +28°C° 0 mm 3 mps 664 mmHg 39%
    13:00 +29°C° 0 mm 3 mps 664 mmHg 37%
    14:00 +28°C° 0 mm 3 mps 664 mmHg 39%
    15:00 +28°C° 0 mm 3 mps 664 mmHg 41%
    16:00 +27°C° 0 mm 3 mps 663 mmHg 43%
    17:00 +26°C° 0 mm 3 mps 663 mmHg 49%
    18:00 +24°C° 0 mm 2 mps 663 mmHg 55%
    19:00 +23°C° 0 mm 2 mps 663 mmHg 61%
    20:00 +22°C° 0 mm 1 mps 663 mmHg 65%
    21:00 +21°C° 0 mm 1 mps 663 mmHg 69%
    22:00 +20°C° 0 mm 1 mps 663 mmHg 73%
    23:00 +20°C° 0 mm 1 mps 663 mmHg 74%

    Day after tomorrow, 19 July, Thursday

    Time Temperature Precipitation Wind Pressure Humidity
    00:00 +20°C° 0 mm 1 mps 663 mmHg 74%
    01:00 +19°C° 0 mm 1 mps 662 mmHg 75%
    02:00 +19°C° 0 mm 1 mps 662 mmHg 76%
    03:00 +19°C° 0 mm 1 mps 662 mmHg 77%
    04:00 +19°C° 0 mm 1 mps 662 mmHg 77%
    05:00 +20°C° 0 mm 1 mps 663 mmHg 72%
    06:00 +21°C° 0 mm 1 mps 663 mmHg 66%
    07:00 +23°C° 0 mm 1 mps 664 mmHg 60%
    08:00 +24°C° 0 mm 1 mps 664 mmHg 54%
    09:00 +26°C° 0 mm 2 mps 664 mmHg 47%
    10:00 +27°C° 0 mm 2 mps 665 mmHg 41%
    11:00 +28°C° 0 mm 3 mps 665 mmHg 39%
    12:00 +28°C° 0 mm 3 mps 665 mmHg 37%
    13:00 +28°C° 0 mm 3 mps 665 mmHg 36%
    14:00 +28°C° 0 mm 3 mps 665 mmHg 38%
    15:00 +27°C° 0 mm 3 mps 664 mmHg 40%
    16:00 +27°C° 0 mm 3 mps 664 mmHg 42%
    17:00 +25°C° 0 mm 2 mps 664 mmHg 47%
    18:00 +24°C° 0 mm 2 mps 664 mmHg 52%
    19:00 +22°C° 0 mm 1 mps 663 mmHg 57%
    20:00 +22°C° 0 mm 1 mps 663 mmHg 59%
    21:00 +21°C° 0 mm 1 mps 663 mmHg 61%
    22:00 +20°C° 0 mm 1 mps 663 mmHg 63%
    23:00 +20°C° 0 mm 1 mps 663 mmHg 64%

    20 July, Friday

    Time Temperature Precipitation Wind Pressure Humidity
    00:00 +20°C° 0 mm 1 mps 663 mmHg 65%
    01:00 +19°C° 0 mm 1 mps 663 mmHg 66%
    02:00 +19°C° 0 mm 1 mps 663 mmHg 67%
    03:00 +19°C° 0 mm 1 mps 663 mmHg 68%
    04:00 +19°C° 0 mm 1 mps 663 mmHg 68%
    05:00 +20°C° 0 mm 1 mps 663 mmHg 63%
    06:00 +22°C° 0 mm 1 mps 664 mmHg 57%
    07:00 +23°C° 0 mm 1 mps 665 mmHg 52%
    08:00 +25°C° 0 mm 1 mps 665 mmHg 48%
    09:00 +26°C° 0 mm 2 mps 666 mmHg 44%
    10:00 +27°C° 0 mm 2 mps 666 mmHg 40%
    11:00 +27°C° 0 mm 2 mps 666 mmHg 41%
    12:00 +27°C° 0 mm 2 mps 666 mmHg 42%
    13:00 +27°C° 0 mm 2 mps 666 mmHg 43%
    14:00 +27°C° 0 mm 2 mps 666 mmHg 44%
    15:00 +27°C° 0 mm 2 mps 666 mmHg 45%
    16:00 +26°C° 0 mm 2 mps 665 mmHg 46%
    17:00 +25°C° 0 mm 2 mps 665 mmHg 50%
    18:00 +24°C° 0 mm 2 mps 665 mmHg 55%
    19:00 +23°C° 0 mm 1 mps 665 mmHg 59%
    20:00 +22°C° 0 mm 1 mps 665 mmHg 62%
    21:00 +21°C° 0 mm 1 mps 665 mmHg 65%
    22:00 +21°C° 0 mm 1 mps 665 mmHg 67%
    23:00 +20°C° 0 mm 1 mps 665 mmHg 68%

    21 July, Saturday

    Time Temperature Precipitation Wind Pressure Humidity
    00:00 +20°C° 0 mm 1 mps 664 mmHg 68%
    01:00 +20°C° 0 mm 1 mps 664 mmHg 69%
    02:00 +20°C° 0 mm 1 mps 664 mmHg 69%
    03:00 +19°C° 0 mm 1 mps 664 mmHg 69%
    04:00 +19°C° 0 mm 1 mps 664 mmHg 70%
    05:00 +21°C° 0 mm 1 mps 665 mmHg 63%
    06:00 +23°C° 0 mm 1 mps 665 mmHg 56%
    07:00 +24°C° 0 mm 1 mps 666 mmHg 50%
    08:00 +26°C° 0 mm 1 mps 666 mmHg 45%
    09:00 +27°C° 0 mm 1 mps 667 mmHg 40%
    10:00 +29°C° 0 mm 2 mps 667 mmHg 36%
    11:00 +29°C° 0 mm 2 mps 667 mmHg 34%
    12:00 +30°C° 0 mm 2 mps 667 mmHg 33%
    13:00 +31°C° 0 mm 3 mps 667 mmHg 32%
    14:00 +30°C° 0 mm 3 mps 667 mmHg 33%
    15:00 +30°C° 0 mm 3 mps 667 mmHg 33%
    16:00 +29°C° 0 mm 3 mps 666 mmHg 34%
    17:00 +27°C° 0 mm 2 mps 666 mmHg 40%
    18:00 +26°C° 0 mm 2 mps 666 mmHg 45%
    19:00 +24°C° 0 mm 1 mps 665 mmHg 51%
    20:00 +23°C° 0 mm 1 mps 665 mmHg 53%
    21:00 +22°C° 0 mm 1 mps 665 mmHg 55%
    22:00 +21°C° 0 mm 1 mps 665 mmHg 57%
    23:00 +21°C° 0 mm 1 mps 664 mmHg 56%

    22 July, Sunday

    Time Temperature Precipitation Wind Pressure Humidity
    00:00 +21°C° 0 mm 1 mps 664 mmHg 55%
    01:00 +20°C° 0 mm 1 mps 664 mmHg 54%
    02:00 +20°C° 0 mm 1 mps 663 mmHg 53%
    03:00 +19°C° 0 mm 2 mps 663 mmHg 52%
    04:00 +19°C° 0 mm 2 mps 663 mmHg 50%
    05:00 +21°C° 0 mm 2 mps 663 mmHg 46%
    06:00 +24°C° 0 mm 1 mps 664 mmHg 41%
    07:00 +26°C° 0 mm 1 mps 664 mmHg 37%
    08:00 +28°C° 0 mm 2 mps 664 mmHg 33%
    09:00 +29°C° 0 mm 2 mps 665 mmHg 29%
    10:00 +31°C° 0 mm 3 mps 665 mmHg 25%
    11:00 +33°C° 0 mm 3 mps 665 mmHg 24%
    12:00 +33°C° 0 mm 4 mps 664 mmHg 24%
    13:00 +34°C° 0 mm 4 mps 664 mmHg 24%
    14:00 +33°C° 0 mm 4 mps 663 mmHg 25%
    15:00 +32°C° 0 mm 4 mps 663 mmHg 27%
    16:00 +30°C° 0 mm 4 mps 663 mmHg 28%
    17:00 +28°C° 0 mm 4 mps 662 mmHg 35%
    18:00 +26°C° 0 mm 3 mps 661 mmHg 42%
    19:00 +24°C° 0 mm 2 mps 661 mmHg 49%
    20:00 +23°C° 0 mm 2 mps 660 mmHg 54%
    21:00 +21°C° 0 mm 2 mps 660 mmHg 60%
    22:00 +20°C° 0 mm 2 mps 660 mmHg 65%
    23:00 +19°C° 0 mm 2 mps 659 mmHg 66%
    Show more